Location: ??????
(41.3164°N, 22.6615°E)
Time: 02:30:11
(UTC+00:00)

Oscar 19 - Pass Details

Date: 06 July 2022
Orbit: 773 x 790 km, 98.8° (Epoch: 09 August)

Event Time Altitude Azimuth Distance (km) Brightness Sun altitude
Rises 01:04:17 0° 27° (NNE) 3,257 15.5 -17.1°
Reaches altitude 10° 01:07:02 10° 41° (NE) 2,325 14.4 -16.8°
Maximum altitude 01:11:07 24° 94° (E) 1,572 12.6 -16.4°
Drops below altitude 10° 01:15:11 10° 148° (SSE) 2,315 12.9 -15.9°
Enters shadow 01:17:18 - 159° (SSE) 3,020 13.4 -15.6°
